Decatur, IL

4:40 AM CDT on March 26, 2017 (GMT -0500)
Decatur

Weather History for KDEC - November, 2011

Change the Weather History Date:

Thursday, November 10, 2011

  Actual Average Record
Temperature  
Mean Temperature 39 °F 46 °F  
Max Temperature 43 °F 55 °F 75 °F (1999)
Min Temperature 34 °F 37 °F 23 °F (2008)
Degree Days  
Heating Degree Days 26 19  
Month to date heating degree days 136 176  
Since 1 July heating degree days 536 594  
Cooling Degree Days 0 0  
Month to date cooling degree days 0 0  
Year to date cooling degree days 1327 1048  
Moisture  
Dew Point 27 °F    
Average Humidity 65    
Maximum Humidity 76    
Minimum Humidity 53    
Precipitation  
Precipitation 0.00 in 0.11 in 0.59 in (2006)
Month to date precipitation 1.63 1.08  
Year to date precipitation 29.83 33.56  
Sea Level Pressure  
Sea Level Pressure 30.12 in    
Wind  
Wind Speed 12 mph (WNW)    
Max Wind Speed 23 mph    
Max Gust Speed 29 mph    
Visibility 10 miles    
Events      
T = Trace of Precipitation, MM = Missing Value Source: NWS Daily Summary

Daily Weather History Graph

Daily Weather History Graph

Search for Another Location

Airport or City:

Trip Planner

Search our weather history database for the weather conditions in past years. The results will help you decide how hot, cold, wet, or windy it might be!

Date:

Astronomy

Nov. 10, 2011 Rise Set
Actual Time 6:34 AM CST 4:44 PM CST
Civil Twilight 6:05 AM CST 5:12 PM CST
Nautical Twilight 5:33 AM CST 5:44 PM CST
Astronomical Twilight 5:01 AM CST 6:16 PM CST
Moon 4:31 PM CST (11/10) 6:26 AM CST (11/10)
Length of Visible Light 11h 07m
Length of Day
10h 09m
Full, 100% of the Moon is Illuminated
Nov 10
Full
Nov 10
Full
Nov 18
Last Quarter
Nov 25
New
Dec 2
First Quarter

Hourly Weather History & Observations

Time (CST) Temp. Windchill Dew Point Humidity Pressure Visibility Wind Dir Wind Speed Gust Speed Precip Events Conditions
12:54 AM 39.0 °F 31.8 °F 30.0 °F 70% 30.12 in 10.0 mi West 11.5 mph - N/A   Clear
1:54 AM 37.9 °F 31.5 °F 30.0 °F 73% 30.12 in 10.0 mi West 9.2 mph - N/A   Clear
2:54 AM 37.9 °F 31.5 °F 30.0 °F 73% 30.10 in 10.0 mi West 9.2 mph - N/A   Clear
3:54 AM 37.0 °F 29.3 °F 28.0 °F 70% 30.10 in 10.0 mi West 11.5 mph - N/A   Clear
4:54 AM 36.0 °F 28.0 °F 27.0 °F 70% 30.11 in 10.0 mi West 11.5 mph 20.7 mph N/A   Clear
5:54 AM 35.1 °F 27.9 °F 26.1 °F 70% 30.10 in 10.0 mi West 9.2 mph - N/A   Clear
6:54 AM 35.1 °F 26.9 °F 25.0 °F 67% 30.12 in 10.0 mi West 11.5 mph - N/A   Clear
7:54 AM 37.0 °F 28.5 °F 25.0 °F 62% 30.12 in 10.0 mi West 13.8 mph 20.7 mph N/A   Clear
8:54 AM 37.9 °F 30.5 °F 27.0 °F 65% 30.12 in 10.0 mi WNW 11.5 mph 26.5 mph N/A   Scattered Clouds
9:54 AM 39.9 °F 31.8 °F 27.0 °F 60% 30.12 in 10.0 mi WNW 15.0 mph 24.2 mph N/A   Clear
10:54 AM 41.0 °F 32.2 °F 28.0 °F 60% 30.12 in 10.0 mi West 18.4 mph 23.0 mph N/A   Overcast
11:54 AM 42.1 °F 35.2 °F 28.0 °F 58% 30.11 in 10.0 mi West 12.7 mph 21.9 mph N/A   Mostly Cloudy
12:54 PM 42.1 °F 34.5 °F 27.0 °F 55% 30.10 in 10.0 mi West 15.0 mph 24.2 mph N/A   Overcast
1:54 PM 42.1 °F 35.7 °F 26.1 °F 53% 30.10 in 10.0 mi West 11.5 mph 24.2 mph N/A   Overcast
2:54 PM 41.0 °F 32.5 °F 26.1 °F 55% 30.11 in 10.0 mi WNW 17.3 mph 27.6 mph N/A   Mostly Cloudy
3:54 PM 41.0 °F 33.1 °F 27.0 °F 57% 30.12 in 10.0 mi WNW 15.0 mph 25.3 mph N/A   Overcast
4:54 PM 39.9 °F 32.5 °F 28.0 °F 63% 30.14 in 10.0 mi WNW 12.7 mph - N/A   Overcast
5:54 PM 39.9 °F 33.9 °F 28.0 °F 63% 30.14 in 10.0 mi WNW 9.2 mph - N/A   Overcast
6:54 PM 39.0 °F 31.4 °F 27.0 °F 62% 30.14 in 10.0 mi WNW 12.7 mph 19.6 mph N/A   Overcast
7:54 PM 39.0 °F 31.4 °F 27.0 °F 62% 30.14 in 10.0 mi WNW 12.7 mph - N/A   Overcast
8:54 PM 37.9 °F 31.5 °F 27.0 °F 65% 30.14 in 10.0 mi WNW 9.2 mph - N/A   Scattered Clouds
9:54 PM 36.0 °F 29.6 °F 27.0 °F 70% 30.14 in 10.0 mi West 8.1 mph - N/A   Clear
10:54 PM 35.1 °F 29.3 °F 26.1 °F 70% 30.14 in 10.0 mi West 6.9 mph - N/A   Clear
11:54 PM 35.1 °F 30.1 °F 25.0 °F 67% 30.14 in 10.0 mi West 5.8 mph - N/A   Partly Cloudy